• în Republica Moldova
  • Lista ţărilor
  • Pe 7 zile
  • Temperatura apei
  • Hartă satelitară
  • Meteo pe hartă
  • Widget-uri
  • user-avatar
    Intrare

    Meteo pe oră la Kipungo

    Astăzi, 17 Noiembrie, Sâmbătă

    Timp Temperatura Precipitaţii Vânt Presiune Umiditate
    00:00 +23°C° 0.1 mm 2 m/s 653 mmHg 69%
    01:00 +21°C° 0.1 mm 2 m/s 653 mmHg 78%
    02:00 +21°C° 0 mm 2 m/s 653 mmHg 82%
    03:00 +20°C° 0 mm 2 m/s 653 mmHg 86%
    04:00 +20°C° 0 mm 2 m/s 653 mmHg 89%
    05:00 +21°C° 0 mm 2 m/s 653 mmHg 82%
    06:00 +23°C° 0 mm 2 m/s 654 mmHg 74%
    07:00 +24°C° 0 mm 2 m/s 655 mmHg 67%
    08:00 +28°C° 0 mm 1 m/s 656 mmHg 52%
    09:00 +33°C° 0 mm 1 m/s 657 mmHg 37%
    10:00 +37°C° 0 mm 1 m/s 658 mmHg 22%
    11:00 +39°C° 0 mm 1 m/s 657 mmHg 19%
    12:00 +39°C° 0 mm 2 m/s 656 mmHg 16%
    13:00 +40°C° 0 mm 2 m/s 656 mmHg 12%
    14:00 +39°C° 0 mm 2 m/s 655 mmHg 13%
    15:00 +38°C° 0 mm 2 m/s 654 mmHg 13%
    16:00 +38°C° 0 mm 3 m/s 654 mmHg 14%
    17:00 +35°C° 0 mm 3 m/s 654 mmHg 20%
    18:00 +33°C° 0 mm 3 m/s 654 mmHg 26%
    19:00 +29°C° 0 mm 3 m/s 654 mmHg 33%
    20:00 +28°C° 0 mm 3 m/s 654 mmHg 42%
    21:00 +27°C° 0 mm 3 m/s 654 mmHg 51%
    22:00 +25°C° 0 mm 3 m/s 655 mmHg 60%
    23:00 +24°C° 0 mm 3 m/s 654 mmHg 64%

    Mâine, 18 Noiembrie, Duminică

    Timp Temperatura Precipitaţii Vânt Presiune Umiditate
    00:00 +24°C° 0 mm 3 m/s 654 mmHg 67%
    01:00 +22°C° 0 mm 3 m/s 654 mmHg 71%
    02:00 +21°C° 0 mm 2 m/s 653 mmHg 72%
    03:00 +21°C° 0 mm 2 m/s 653 mmHg 73%
    04:00 +21°C° 0 mm 1 m/s 653 mmHg 74%
    05:00 +22°C° 0 mm 1 m/s 654 mmHg 68%
    06:00 +23°C° 0 mm 1 m/s 654 mmHg 62%
    07:00 +24°C° 0 mm 1 m/s 655 mmHg 56%
    08:00 +28°C° 0 mm 1 m/s 656 mmHg 45%
    09:00 +32°C° 0 mm 1 m/s 656 mmHg 34%
    10:00 +35°C° 0 mm 1 m/s 657 mmHg 22%
    11:00 +39°C° 0 mm 1 m/s 657 mmHg 19%
    12:00 +41°C° 0 mm 1 m/s 656 mmHg 16%
    13:00 +43°C° 0 mm 1 m/s 656 mmHg 12%
    14:00 +42°C° 0 mm 1 m/s 655 mmHg 13%
    15:00 +40°C° 0 mm 1 m/s 654 mmHg 13%
    16:00 +37°C° 0 mm 1 m/s 653 mmHg 14%
    17:00 +36°C° 0 mm 2 m/s 653 mmHg 19%
    18:00 +33°C° 0 mm 3 m/s 653 mmHg 24%
    19:00 +30°C° 0 mm 3 m/s 653 mmHg 29%
    20:00 +29°C° 0 mm 3 m/s 653 mmHg 34%
    21:00 +27°C° 0 mm 2 m/s 654 mmHg 39%
    22:00 +26°C° 0 mm 2 m/s 654 mmHg 44%
    23:00 +25°C° 0 mm 2 m/s 654 mmHg 47%

    Poimâine, 19 Noiembrie, Luni

    Timp Temperatura Precipitaţii Vânt Presiune Umiditate
    00:00 +24°C° 0 mm 2 m/s 654 mmHg 51%
    01:00 +23°C° 0 mm 2 m/s 653 mmHg 55%
    02:00 +23°C° 0 mm 2 m/s 653 mmHg 57%
    03:00 +22°C° 0 mm 1 m/s 652 mmHg 60%
    04:00 +21°C° 0 mm 1 m/s 652 mmHg 62%
    05:00 +23°C° 0 mm 1 m/s 653 mmHg 58%
    06:00 +24°C° 0 mm 1 m/s 654 mmHg 53%
    07:00 +25°C° 0 mm 1 m/s 654 mmHg 49%
    08:00 +29°C° 0 mm 1 m/s 655 mmHg 39%
    09:00 +34°C° 0 mm 1 m/s 656 mmHg 30%
    10:00 +39°C° 0 mm 1 m/s 657 mmHg 20%
    11:00 +39°C° 0 mm 1 m/s 656 mmHg 18%
    12:00 +40°C° 0 mm 1 m/s 655 mmHg 16%
    13:00 +41°C° 0 mm 2 m/s 654 mmHg 14%
    14:00 +39°C° 0 mm 2 m/s 654 mmHg 16%
    15:00 +37°C° 0 mm 2 m/s 653 mmHg 17%
    16:00 +36°C° 0 mm 2 m/s 653 mmHg 19%
    17:00 +34°C° 0 mm 2 m/s 653 mmHg 23%
    18:00 +31°C° 0 mm 2 m/s 653 mmHg 27%
    19:00 +29°C° 0 mm 2 m/s 653 mmHg 32%
    20:00 +28°C° 0 mm 2 m/s 653 mmHg 37%
    21:00 +26°C° 0 mm 2 m/s 653 mmHg 43%
    22:00 +25°C° 0 mm 2 m/s 654 mmHg 48%
    23:00 +24°C° 0 mm 2 m/s 653 mmHg 51%

    20 Noiembrie, Marţi

    Timp Temperatura Precipitaţii Vânt Presiune Umiditate
    00:00 +24°C° 0 mm 2 m/s 653 mmHg 54%
    01:00 +22°C° 0 mm 3 m/s 652 mmHg 57%
    02:00 +21°C° 0 mm 2 m/s 652 mmHg 58%
    03:00 +22°C° 0 mm 1 m/s 652 mmHg 58%
    04:00 +22°C° 0 mm 1 m/s 652 mmHg 59%
    05:00 +23°C° 0 mm 1 m/s 653 mmHg 55%
    06:00 +24°C° 0 mm 1 m/s 653 mmHg 51%
    07:00 +25°C° 0 mm 1 m/s 654 mmHg 47%
    08:00 +29°C° 0 mm 1 m/s 655 mmHg 38%
    09:00 +34°C° 0 mm 1 m/s 656 mmHg 29%
    10:00 +36°C° 0 mm 0 m/s 657 mmHg 20%
    11:00 +40°C° 0 mm 1 m/s 656 mmHg 18%
    12:00 +40°C° 0 mm 1 m/s 655 mmHg 17%
    13:00 +41°C° 0 mm 1 m/s 654 mmHg 15%
    14:00 +40°C° 0 mm 1 m/s 654 mmHg 17%
    15:00 +38°C° 0 mm 2 m/s 653 mmHg 18%
    16:00 +37°C° 0 mm 2 m/s 652 mmHg 19%
    17:00 +35°C° 0 mm 2 m/s 653 mmHg 25%
    18:00 +31°C° 0 mm 2 m/s 653 mmHg 30%
    19:00 +29°C° 0 mm 3 m/s 653 mmHg 36%
    20:00 +28°C° 0 mm 3 m/s 653 mmHg 42%
    21:00 +27°C° 0 mm 3 m/s 654 mmHg 48%
    22:00 +25°C° 0 mm 3 m/s 654 mmHg 53%
    23:00 +24°C° 0.2 mm 3 m/s 654 mmHg 58%

    21 Noiembrie, Miercuri

    Timp Temperatura Precipitaţii Vânt Presiune Umiditate
    00:00 +24°C° 0.2 mm 2 m/s 653 mmHg 63%
    01:00 +23°C° 0.2 mm 2 m/s 653 mmHg 68%
    02:00 +21°C° 0.1 mm 2 m/s 653 mmHg 68%
    03:00 +21°C° 0.1 mm 2 m/s 652 mmHg 67%
    04:00 +21°C° 0.1 mm 2 m/s 652 mmHg 67%
    05:00 +21°C° 0 mm 2 m/s 653 mmHg 63%
    06:00 +23°C° 0 mm 1 m/s 653 mmHg 59%
    07:00 +23°C° 0 mm 1 m/s 654 mmHg 56%
    08:00 +27°C° 0 mm 2 m/s 654 mmHg 46%
    09:00 +30°C° 0 mm 2 m/s 655 mmHg 36%
    10:00 +34°C° 0 mm 2 m/s 656 mmHg 26%
    11:00 +35°C° 0 mm 1 m/s 656 mmHg 23%
    12:00 +39°C° 0 mm 1 m/s 656 mmHg 19%
    13:00 +42°C° 0 mm 1 m/s 655 mmHg 16%
    14:00 +39°C° 0 mm 1 m/s 655 mmHg 19%
    15:00 +37°C° 0 mm 2 m/s 654 mmHg 21%
    16:00 +35°C° 0 mm 2 m/s 653 mmHg 23%
    17:00 +32°C° 0.1 mm 2 m/s 653 mmHg 29%
    18:00 +30°C° 0.1 mm 2 m/s 653 mmHg 35%
    19:00 +28°C° 0.1 mm 2 m/s 653 mmHg 40%
    20:00 +27°C° 0 mm 2 m/s 653 mmHg 45%
    21:00 +26°C° 0 mm 3 m/s 654 mmHg 51%
    22:00 +25°C° 0 mm 3 m/s 654 mmHg 56%
    23:00 +24°C° 0 mm 3 m/s 653 mmHg 60%

    22 Noiembrie, Joi

    Timp Temperatura Precipitaţii Vânt Presiune Umiditate
    00:00 +24°C° 0 mm 2 m/s 653 mmHg 64%
    01:00 +23°C° 0 mm 1 m/s 652 mmHg 67%
    02:00 +21°C° 0 mm 2 m/s 652 mmHg 69%
    03:00 +21°C° 0 mm 2 m/s 652 mmHg 71%
    04:00 +20°C° 0 mm 2 m/s 651 mmHg 73%
    05:00 +23°C° 0 mm 2 m/s 652 mmHg 68%
    06:00 +24°C° 0 mm 2 m/s 653 mmHg 63%
    07:00 +25°C° 0 mm 2 m/s 653 mmHg 58%
    08:00 +28°C° 0 mm 1 m/s 654 mmHg 48%
    09:00 +31°C° 0 mm 1 m/s 655 mmHg 37%
    10:00 +35°C° 0 mm 1 m/s 655 mmHg 26%
    11:00 +36°C° 0 mm 1 m/s 655 mmHg 22%
    12:00 +39°C° 0 mm 1 m/s 655 mmHg 19%
    13:00 +41°C° 0 mm 1 m/s 654 mmHg 16%
    14:00 +39°C° 0 mm 2 m/s 654 mmHg 17%
    15:00 +37°C° 0 mm 2 m/s 653 mmHg 19%
    16:00 +36°C° 0 mm 3 m/s 652 mmHg 20%
    17:00 +34°C° 0 mm 3 m/s 652 mmHg 28%
    18:00 +32°C° 0 mm 4 m/s 652 mmHg 36%
    19:00 +28°C° 0 mm 5 m/s 653 mmHg 43%
    20:00 +27°C° 0 mm 4 m/s 653 mmHg 50%
    21:00 +25°C° 0 mm 4 m/s 653 mmHg 57%
    22:00 +24°C° 0 mm 3 m/s 653 mmHg 64%
    23:00 +22°C° 0 mm 3 m/s 653 mmHg 68%
    Arată mai mult